Location: Winthrop
(48.4780°N, 120.1850°W)
Time: 18:24:59
(UTC-08:00)

Envisat - Pass Details

Date: 01 December 2022
Orbit: 763 x 765 km, 98.2° (Epoch: 05 February)

Event Time Altitude Azimuth Distance (km) Brightness Sun altitude
Rises 04:14:52 0° 15° (NNE) 3,245 6.4 -31.7°
Reaches altitude 10° 04:17:11 10° 17° (NNE) 2,314 5.7 -31.4°
Enters shadow 04:19:38 29° 22° (NNE) 1,387 4.4 -31.0°
